TEMELIN Weather Reports


Display with metric or nautical units.
time (UTC)temp
F
wind
direction
speed
MPH
gust
MPH
rain 1hr
in
rain 24hr
in
rain mn
in
humidity
%
barometer
mb
20260831131918 73 250 9.0 0.0 0.00 0.00 0.00 53
20260831121820 72 290 14.0 0.0 0.00 0.00 0.00 60
20260831111917 72 280 14.0 0.0 0.00 0.00 0.00 60
20260831102121 68 290 12.0 0.0 0.00 0.00 0.00 72
20260831091819 70 270 9.0 0.0 0.00 0.00 0.00 73
20260831081920 64 260 5.0 0.0 0.00 0.00 0.00 88
20260831071951 64 280 7.0 0.0 0.00 0.00 0.00 82
20260831061924 61 230 5.0 0.0 0.00 0.00 0.00 87
20260831052036 61 210 5.0 0.0 0.00 0.00 0.00 87
20260831042121 59 30 2.0 0.0 0.00 0.00 0.00 93
20260831031819 61 40 2.0 0.0 0.00 0.00 0.00 87
20260831021918 64 250 2.0 0.0 0.00 0.00 0.00 77
20260831011917 63 290 2.0 0.0 0.00 0.00 0.00 77
20260831001817 64 240 5.0 0.0 0.00 0.00 0.00 77
20260830232031 64 240 5.0 0.0 0.00 0.00 0.00 77
20260830222031 68 220 5.0 0.0 0.00 0.00 0.00 68
20260830211821 70 250 2.0 0.0 0.00 0.00 0.00 60
20260830202030 70 250 5.0 0.0 0.00 0.00 0.00 60
20260830191917 72 260 2.0 0.0 0.00 0.00 0.00 56
20260830181821 72 270 2.0 0.0 0.00 0.00 0.00 60
20260830172029 75 260 5.0 0.0 0.00 0.00 0.00 53
20260830161920 79 260 7.0 0.0 0.00 0.00 0.00 44
20260830151818 79 250 9.0 20.0 0.00 0.00 0.00 41
20260830141917 79 230 12.0 0.0 0.00 0.00 0.00 47